Other Public Products
Issued by NWS Charleston, SC

Home | Current Version | Previous Version | Text Only | Print | Product List | Glossary Off
Versions: 1 2 3 4 5 6 7 8 9 10 11 12 13 14 15 16 17 18 19 20 21 22 23 24 25 26 27 28 29 30 31 32 33 34 35 36 37 38 39 40 41 42 43 44 45 46 47 48 49 50

714
FPUS82 KCHS 232227
OPUCHS

TEST...KCHS/KSAV Gateway Observations...TEST
National Weather Service Charleston SC
600 PM EDT MON APR 23 2018

NOTE: "fair" indicates few or no clouds below 12,000 feet with no
significant weather and/or obstructions to visibility.

SCZ050-WAZ558-NCZ071-TXZ119-213-PAZ071-DCZ001-FLZ074-172-MI076-
NYZ176-178-MAZ016-IL014-TNZ027-NJZ106-GAZ044-MD014-232300-

...Gateway Observations for Charleston International...

CITY           SKY/WX    TMP DP  RH WIND       PRES   REMARKS
Chas Airport   HVY RAIN  67  65  93 SE17G38   29.98F FOG
Seattle        MOSUNNY   69  38  32 N17       30.26F
Charlotte      RAIN      58  57  97 E10       30.09S FOG
Dallas DFW     PTSUNNY   75  51  43 NW9       29.99F
Dallas Love    MOSUNNY   76  52  43 NW13      30.00F
Philladelphia  PTSUNNY   65  24  21 S14G22    30.39S
Wash National  PTSUNNY   65  42  43 SE16G22   30.36R
Baltimore      PTSUNNY   65  42  43 S10G21    30.36R
Miami          PTSUNNY   74  70  87 VRB6      29.97S
Detroit        PTSUNNY   70  42  36 E8        30.14F
Newark         FAIR      55  37  50 SE12      30.43S
Laguardia      FAIR      58  33  39 SE12      30.42F
J F K          FAIR      51  40  65 SE10      30.45F
Boston Logan   FAIR      52  32  46 E14       30.42F
Ft. Lauderdale PTSUNNY   80  76  87 S14       29.96S
Chicago O`Hare CLOUDY    62  27  26 NE16      30.09F
Chicago Midway CLOUDY    60  30  32 N16       30.10S
Houston Bush   FAIR      79  53  40 NW8       29.97F
Houston Hobby  FAIR      79  50  36 W15G23    29.97F
Nashville      CLOUDY    61  58  90 E9        29.89S
Atlanta        PTSUNNY   68  65  90 NE16      29.87R

$$

GAZ044-118-TXZ119-213-NCZ071-DCZ001-MDZ014-506-PAZ021-071-NJZ106-
NYZ176-178-MAZ106-OHZ011-021-055-MIZ076-KYZ091-ILZ014-INZ047-
MNZ060-ONZ431-232300-

...Gateway Observations for Savannah International...

CITY           SKY/WX    TMP DP  RH WIND       PRES   REMARKS
Savannah Arpt  CLOUDY    71  68  90 SE10      29.93S
Atlanta        PTSUNNY   68  65  90 NE16      29.87R
Charlotte      RAIN      58  57  97 E10       30.09S FOG
Dallas DFW     PTSUNNY   75  51  43 NW9       29.99F
Houston Bush   FAIR      79  53  40 NW8       29.97F
Wash National  PTSUNNY   65  42  43 SE16G22   30.36R
Wash Dulles    CLOUDY    66  43  43 S10G23    30.34R
Baltimore      PTSUNNY   65  42  43 S10G21    30.36R
Philadelphia   PTSUNNY   65  24  21 S14G22    30.39S
Newark         FAIR      55  37  50 SE12      30.43S
Laguardia      FAIR      58  33  39 SE12      30.42F
J F K          FAIR      51  40  65 SE10      30.45F
Boston         FAIR      52  32  46 E14       30.42F
Pittsburg      CLOUDY    68  35  29 SE16      30.19S
Akron          PTSUNNY   72  38  29 S13       30.16S
Cleveland      CLOUDY    72  40  31 S14       30.16S
Cincinnati     CLOUDY    55  51  86 E15       30.07S
Columbus       RAIN      54  49  82 E7        30.18F
Detroit        PTSUNNY   70  42  36 E8        30.14F
Chicago O`Hare CLOUDY    62  27  26 NE16      30.09F
Minneapolis    FAIR      70  35  27 N3        30.13F
Indianapolis   LGT RAIN  56  54  93 E15       30.04F FOG
Toronto Canada MOSUNNY   63  19  19 E15       30.23F

$$




USA.gov is the U.S. government's official web portal to all federal, state and local government web resources and services.